Previsão horária em Abadeh

Hoje, 17 Abril, Sábado

Tempo Temperatura Precipitação Vento Pressão Humidade
00:00 +16°C° 0 mm 2 m/s 591 mmHg 16%
01:00 +15°C° 0 mm 2 m/s 591 mmHg 17%
02:00 +15°C° 0 mm 2 m/s 591 mmHg 22%
03:00 +14°C° 0 mm 2 m/s 591 mmHg 27%
04:00 +12°C° 0 mm 3 m/s 591 mmHg 32%
05:00 +13°C° 0 mm 2 m/s 591 mmHg 34%
06:00 +13°C° 0 mm 2 m/s 591 mmHg 35%
07:00 +13°C° 0 mm 2 m/s 592 mmHg 37%
08:00 +14°C° 0 mm 3 m/s 592 mmHg 34%
09:00 +16°C° 0 mm 3 m/s 593 mmHg 30%
10:00 +18°C° 0 mm 3 m/s 594 mmHg 27%
11:00 +19°C° 0 mm 3 m/s 594 mmHg 23%
12:00 +20°C° 0 mm 3 m/s 594 mmHg 20%
13:00 +21°C° 0 mm 3 m/s 594 mmHg 17%
14:00 +22°C° 0 mm 3 m/s 593 mmHg 16%
15:00 +22°C° 0 mm 4 m/s 593 mmHg 15%
16:00 +23°C° 0 mm 5 m/s 593 mmHg 14%
17:00 +22°C° 0 mm 4 m/s 593 mmHg 16%
18:00 +21°C° 0 mm 4 m/s 593 mmHg 18%
19:00 +20°C° 0 mm 3 m/s 593 mmHg 21%
20:00 +19°C° 0 mm 3 m/s 593 mmHg 22%
21:00 +19°C° 0 mm 3 m/s 593 mmHg 24%
22:00 +18°C° 0 mm 2 m/s 593 mmHg 26%
23:00 +17°C° 0 mm 2 m/s 593 mmHg 27%

Amanhã, 18 Abril, Domingo

Tempo Temperatura Precipitação Vento Pressão Humidade
00:00 +17°C° 0 mm 2 m/s 592 mmHg 28%
01:00 +16°C° 0 mm 2 m/s 592 mmHg 30%
02:00 +16°C° 0 mm 1 m/s 592 mmHg 30%
03:00 +15°C° 0 mm 1 m/s 592 mmHg 31%
04:00 +15°C° 0 mm 1 m/s 592 mmHg 31%
05:00 +15°C° 0 mm 1 m/s 592 mmHg 31%
06:00 +15°C° 0 mm 1 m/s 592 mmHg 32%
07:00 +15°C° 0 mm 1 m/s 592 mmHg 32%
08:00 +16°C° 0 mm 2 m/s 593 mmHg 30%
09:00 +17°C° 0 mm 2 m/s 593 mmHg 28%
10:00 +18°C° 0 mm 2 m/s 594 mmHg 26%
11:00 +18°C° 0 mm 3 m/s 594 mmHg 24%
12:00 +19°C° 0 mm 3 m/s 594 mmHg 23%
13:00 +20°C° 0 mm 4 m/s 594 mmHg 22%
14:00 +18°C° 0.5 mm 4 m/s 593 mmHg 31%
15:00 +15°C° 0.5 mm 4 m/s 592 mmHg 41%
16:00 +13°C° 0.5 mm 5 m/s 591 mmHg 50%
17:00 +13°C° 0.3 mm 4 m/s 592 mmHg 48%
18:00 +13°C° 0.3 mm 3 m/s 592 mmHg 46%
19:00 +14°C° 0.3 mm 2 m/s 592 mmHg 44%
20:00 +14°C° 0.1 mm 2 m/s 592 mmHg 44%
21:00 +14°C° 0.1 mm 1 m/s 593 mmHg 44%
22:00 +14°C° 0.1 mm 1 m/s 593 mmHg 45%
23:00 +14°C° 0 mm 1 m/s 592 mmHg 46%

Depois de amanhã, 19 Abril, Segunda-feira

Tempo Temperatura Precipitação Vento Pressão Humidade
00:00 +13°C° 0 mm 1 m/s 592 mmHg 47%
01:00 +13°C° 0 mm 2 m/s 591 mmHg 48%
02:00 +12°C° 0 mm 1 m/s 591 mmHg 49%
03:00 +12°C° 0 mm 1 m/s 591 mmHg 50%
04:00 +12°C° 0 mm 1 m/s 590 mmHg 51%
05:00 +12°C° 0 mm 1 m/s 591 mmHg 49%
06:00 +12°C° 0 mm 1 m/s 591 mmHg 48%
07:00 +13°C° 0 mm 1 m/s 591 mmHg 47%
08:00 +14°C° 0 mm 1 m/s 592 mmHg 41%
09:00 +15°C° 0 mm 0 m/s 592 mmHg 35%
10:00 +16°C° 0 mm 0 m/s 593 mmHg 29%
11:00 +19°C° 0 mm 1 m/s 593 mmHg 25%
12:00 +20°C° 0 mm 2 m/s 593 mmHg 20%
13:00 +21°C° 0 mm 3 m/s 593 mmHg 16%
14:00 +22°C° 0 mm 3 m/s 593 mmHg 15%
15:00 +22°C° 0 mm 4 m/s 593 mmHg 14%
16:00 +22°C° 0 mm 4 m/s 592 mmHg 13%
17:00 +22°C° 0 mm 4 m/s 592 mmHg 14%
18:00 +21°C° 0 mm 4 m/s 592 mmHg 15%
19:00 +21°C° 0 mm 4 m/s 592 mmHg 16%
20:00 +20°C° 0 mm 3 m/s 592 mmHg 19%
21:00 +19°C° 0 mm 2 m/s 592 mmHg 21%
22:00 +17°C° 0 mm 0 m/s 592 mmHg 23%
23:00 +17°C° 0 mm 0 m/s 592 mmHg 24%

20 Abril, Terça-feira

Tempo Temperatura Precipitação Vento Pressão Humidade
00:00 +16°C° 0 mm 0 m/s 591 mmHg 25%
01:00 +18°C° 0 mm 1 m/s 591 mmHg 26%
02:00 +16°C° 0 mm 1 m/s 591 mmHg 27%
03:00 +16°C° 0 mm 1 m/s 591 mmHg 27%
04:00 +15°C° 0 mm 1 m/s 590 mmHg 28%
05:00 +16°C° 0 mm 1 m/s 591 mmHg 28%
06:00 +16°C° 0 mm 1 m/s 591 mmHg 28%
07:00 +16°C° 0 mm 1 m/s 592 mmHg 27%
08:00 +19°C° 0 mm 1 m/s 592 mmHg 24%
09:00 +18°C° 0 mm 0 m/s 593 mmHg 21%
10:00 +20°C° 0 mm 0 m/s 594 mmHg 18%
11:00 +20°C° 0 mm 0 m/s 594 mmHg 17%
12:00 +23°C° 0 mm 1 m/s 594 mmHg 15%
13:00 +24°C° 0 mm 1 m/s 594 mmHg 14%
14:00 +25°C° 0 mm 2 m/s 594 mmHg 13%
15:00 +26°C° 0 mm 2 m/s 593 mmHg 12%
16:00 +26°C° 0 mm 3 m/s 593 mmHg 12%
17:00 +26°C° 0 mm 4 m/s 593 mmHg 12%
18:00 +25°C° 0 mm 4 m/s 593 mmHg 13%
19:00 +23°C° 0 mm 5 m/s 593 mmHg 14%
20:00 +22°C° 0 mm 3 m/s 592 mmHg 16%
21:00 +21°C° 0 mm 2 m/s 592 mmHg 17%
22:00 +21°C° 0 mm 1 m/s 592 mmHg 19%
23:00 +21°C° 0 mm 1 m/s 592 mmHg 19%

21 Abril, Quarta-feira

Tempo Temperatura Precipitação Vento Pressão Humidade
00:00 +21°C° 0 mm 1 m/s 592 mmHg 20%
01:00 +19°C° 0 mm 2 m/s 592 mmHg 20%
02:00 +19°C° 0 mm 1 m/s 592 mmHg 21%
03:00 +19°C° 0 mm 1 m/s 591 mmHg 23%
04:00 +18°C° 0 mm 1 m/s 591 mmHg 24%
05:00 +18°C° 0 mm 1 m/s 592 mmHg 24%
06:00 +19°C° 0 mm 1 m/s 592 mmHg 24%
07:00 +19°C° 0 mm 1 m/s 593 mmHg 24%
08:00 +20°C° 0 mm 2 m/s 593 mmHg 22%
09:00 +21°C° 0 mm 2 m/s 594 mmHg 20%
10:00 +24°C° 0 mm 3 m/s 595 mmHg 17%
11:00 +25°C° 0 mm 3 m/s 595 mmHg 16%
12:00 +26°C° 0 mm 4 m/s 595 mmHg 14%
13:00 +26°C° 0 mm 4 m/s 595 mmHg 13%
14:00 +27°C° 0 mm 5 m/s 595 mmHg 12%
15:00 +27°C° 0 mm 5 m/s 595 mmHg 12%
16:00 +27°C° 0 mm 5 m/s 594 mmHg 11%
17:00 +27°C° 0 mm 5 m/s 594 mmHg 12%
18:00 +26°C° 0 mm 5 m/s 594 mmHg 13%
19:00 +25°C° 0 mm 5 m/s 594 mmHg 14%
20:00 +23°C° 0 mm 4 m/s 594 mmHg 17%
21:00 +22°C° 0 mm 4 m/s 594 mmHg 21%
22:00 +21°C° 0 mm 3 m/s 594 mmHg 25%
23:00 +20°C° 0 mm 3 m/s 594 mmHg 26%

22 Abril, Quinta-feira

Tempo Temperatura Precipitação Vento Pressão Humidade
00:00 +19°C° 0 mm 3 m/s 594 mmHg 28%
01:00 +19°C° 0 mm 2 m/s 594 mmHg 30%
02:00 +18°C° 0 mm 2 m/s 593 mmHg 31%
03:00 +19°C° 0 mm 1 m/s 593 mmHg 32%
04:00 +18°C° 0 mm 1 m/s 593 mmHg 34%
05:00 +18°C° 0 mm 1 m/s 593 mmHg 33%
06:00 +19°C° 0 mm 1 m/s 594 mmHg 32%
07:00 +19°C° 0 mm 1 m/s 594 mmHg 32%
08:00 +20°C° 0 mm 1 m/s 595 mmHg 29%
09:00 +21°C° 0 mm 1 m/s 595 mmHg 26%
10:00 +23°C° 0 mm 1 m/s 596 mmHg 23%
11:00 +24°C° 0 mm 1 m/s 596 mmHg 21%
12:00 +25°C° 0 mm 1 m/s 596 mmHg 19%
13:00 +26°C° 0 mm 1 m/s 596 mmHg 16%
14:00 +26°C° 0 mm 3 m/s 595 mmHg 17%
15:00 +25°C° 0 mm 4 m/s 595 mmHg 18%
16:00 +24°C° 0 mm 6 m/s 594 mmHg 19%
17:00 +23°C° 0.1 mm 5 m/s 594 mmHg 22%
18:00 +22°C° 0.1 mm 4 m/s 594 mmHg 24%
19:00 +21°C° 0.1 mm 3 m/s 594 mmHg 27%
20:00 +21°C° 0.1 mm 2 m/s 594 mmHg 28%
21:00 +20°C° 0.1 mm 2 m/s 594 mmHg 30%
22:00 +21°C° 0.1 mm 1 m/s 595 mmHg 32%
23:00 +19°C° 0 mm 2 m/s 594 mmHg 35%
Mostrar mais

Necessitamos do seu Consentimento

A Meteoprog e os seus Fornecedores de Serviços podem armazenar e aceder a dados pessoais como cookies, identificadores do dispositivo ou outras tecnologias semelhantes existentes no seu dispositivo e processar estes dados para personalizar conteúdos e anúncios, assim como funcionalidades nas redes sociais e análise de tráfego.

  • Armazenar e/ou aceder a informações no seu dispositivo

    Os cookies, identificadores do dispositivo ou outras informações podem ser armazenados ou acedidos no seu dispositivo, para os fins acima indicados.

  • Anúncios e conteúdos personalizados, medição de anúncios e conteúdos, dados sobre o público-alvo e desenvolvimento de produtos

    Os anúncios e os conteúdos podem ser personalizados com base num perfil. Podem ser adicionados dados adicionais para uma maior personalização dos anúncios e dos conteúdos. A eficácia dos anúncios e dos conteúdos pode ser medida. Podem ser obtidas informações sobre o público que visualizou os anúncios e os conteúdos. Estes dados podem ser usados para desenvolver ou melhorar sistemas, softwares ou a experiência do utilizador.

Ao clicar em "Eu concordo”, permitirá o uso de cookies, identificadores do dispositivo e web beacons mencionados ou outras tecnologias semelhantes. As configurações do navegador do seu dispositivo podem ser alteradas.

Para certos fins, podem ser invocados interesses legítimos ao invés de consentimento. Pode ler mais informação sobre este assunto na nossa Política de Privacidade e Cookies.